Regional Weather Roundup
Issued by NWS Sioux Falls, SD

Home | Current Version | Previous Version | Graphics & Text | Print | Product List | Glossary On
Versions: 1 2 3 4 5 6 7 8 9 10 11 12 13 14 15 16 17 18 19 20 21 22 23 24 25 26 27 28 29 30 31 32 33 34 35 36 37 38 39 40 41 42 43 44 45 46 47 48 49 50
000
ASUS43 KFSD 200102
RWRFSD

WEATHER ROUNDUP FOR SE SOUTH DAKOTA/SW MINNESOTA/NW IOWA
NATIONAL WEATHER SERVICE SIOUX FALLS SD
800 PM CDT SAT APR 19 2014

NOTE: "FAIR" INDICATES FEW OR NO CLOUDS BELOW 12,000 FEET WITH NO
SIGNIFICANT WEATHER AND OR OBSTRUCTIONS TO VISIBILITY.


SDZ038>040-050-052>070-200200-
SOUTHEAST SOUTH DAKOTA

CITY           SKY/WX    TMP DP  RH WIND       PRES   REMARKS
CHAMBERLAIN      N/A     63  24  22 E5        30.01S
HURON          MOCLDY    62  25  24 SW5       29.98S
MADISON        FAIR      57  28  33 NW8       30.00S
MITCHELL       PTCLDY    66  24  20 S6        30.00S
SIOUX FALLS    CLOUDY    62  37  39 N6        29.98S
WINNER         FAIR      66  21  18 CALM      30.01S
YANKTON        MOCLDY    66  43  42 NW5       29.99R
$$

MNZ071-072-080-081-089-090-097-098-200200-
SOUTHWEST MINNESOTA

CITY           SKY/WX    TMP DP  RH WIND       PRES   REMARKS
FAIRMONT       CLOUDY    66  46  48 NW7       30.00S
JACKSON        CLOUDY    63  46  55 VRB6      30.00S
LUVERNE        CLOUDY    64  34  32 N3        29.99S
MARSHALL       MOCLDY    63  37  39 NW7       29.98F
MONTEVIDEO     MOCLDY    61  39  44 W3        29.99S
PIPESTONE      CLOUDY    63  34  34 NE7       29.99F
REDWOOD FALLS  MOCLDY    61  41  47 CALM      29.99S
TRACY          MOCLDY    59  42  53 CALM      30.00S
WINDOM         LGT RAIN  61  46  59 N6        30.00S
WORTHINGTON    CLOUDY    63  41  45 N6        30.02S
$$

IAZ001>003-012>014-020>022-031-032-NEZ013-014-SDZ071-200200-
NORTHWEST IOWA

CITY           SKY/WX    TMP DP  RH WIND       PRES   REMARKS
CHEROKEE       CLOUDY    69  47  46 CALM      29.98R
DENISON        CLOUDY    72  43  35 S10       29.97F
ESTHERVILLE    CLOUDY    67  48  50 SW5       29.98R
SHELDON        CLOUDY    64  43  45 N7        29.98R
SIOUX CITY     CLOUDY    69  49  48 N5        29.96F
SPENCER        CLOUDY    66  48  52 W3        29.98S
STORM LAKE     CLOUDY    68  45  42 S9        29.99S
$$

ABBREVIATIONS USED IN REMARKS
   TC - TEMPERATURE IN CELSIUS
  WCI - WIND CHILL INDEX
   HX - HEAT INDEX
  VSB - VISIBILITY




USA.gov is the U.S. government's official web portal to all federal, state and local government web resources and services.